Tracking 29932 objects as of 3-Dec-2024
HD Live streaming from Space Station
objects crossing your sky now

STARLINK-30834

Track STARLINK-30834 now!
10-day predictions
STARLINK-30834 is classified as:


NORAD ID: 58151
Int'l Code: 2023-166B
Perigee: 482.2 km
Apogee: 482.3 km
Inclination: 53.2 °
Period: 94.1 minutes
Semi major axis: 6853 km
RCS: Unknown
Launch date: October 29, 2023
Source: United States (US)
Launch site: AIR FORCE WESTERN TEST RANGE (AFWTR)
Your satellite tracking list
Your tracking list is empty




NASA's NSSDC Master Catalog

Two Line Element Set (TLE):
1 58151U 23166B   24337.91048230 -.00005723  00000-0 -18107-3 0  9993
2 58151  53.1580 204.6807 0000093 343.8636  16.2362 15.30238070 62474
Source of the keplerian elements: AFSPC